CW2931 Weather Reports


Display with metric or nautical units.
time (UTC)temp
F
wind
direction
speed
MPH
gust
MPH
rain 1hr
in
rain 24hr
in
rain mn
in
humidity
%
barometer
mb
20260510002105 68 262 2.0 5.0 0.00 0.06 0.06 37 1003.1
20260510001605 69 256 3.0 7.0 0.00 0.06 0.06 36 1003.0
20260510001105 69 260 3.0 6.0 0.00 0.06 0.06 36 1002.9
20260510000605 69 275 3.0 5.0 0.00 0.06 0.06 35 1002.8
20260509235605 69 239 2.0 5.0 0.00 0.06 0.06 35 1002.7
20260509235105 69 269 3.0 7.0 0.00 0.06 0.06 34 1002.7
20260509234605 70 268 3.0 10.0 0.00 0.06 0.06 34 1002.7
20260509234105 70 292 3.0 6.0 0.00 0.06 0.06 33 1002.6
20260509233605 70 289 3.0 9.0 0.00 0.06 0.06 33 1002.6
20260509233105 70 280 3.0 7.0 0.00 0.06 0.06 34 1002.6
20260509232605 71 193 2.0 9.0 0.00 0.06 0.06 34 1002.6
20260509232105 71 284 3.0 13.0 0.00 0.06 0.06 33 1002.6
20260509231606 71 276 3.0 9.0 0.00 0.06 0.06 33 1002.6
20260509231106 71 303 5.0 13.0 0.00 0.06 0.06 32 1002.6
20260509230606 71 282 7.0 14.0 0.00 0.06 0.06 32 1002.6
20260509225605 71 325 7.0 17.0 0.00 0.06 0.06 32 1002.4
20260509225105 71 277 5.0 18.0 0.00 0.06 0.06 33 1002.5
20260509224605 71 252 11.0 22.0 0.00 0.06 0.06 32 1002.5
20260509224105 72 271 9.0 20.0 0.00 0.06 0.06 32 1002.1
20260509223605 72 278 9.0 18.0 0.00 0.06 0.06 33 1002.1
20260509223105 72 277 9.0 26.0 0.00 0.06 0.06 32 1002.0
20260509222605 72 290 12.0 20.0 0.00 0.06 0.06 33 1002.0
20260509221605 72 254 9.0 18.0 0.00 0.06 0.06 37 1001.5
20260509221105 72 264 10.0 17.0 0.00 0.06 0.06 40 1001.5
20260509220605 71 247 7.0 16.0 0.00 0.06 0.06 44 1001.4
20260509220105 71 246 6.0 16.0 0.00 0.06 0.06 40 1001.2
20260509215605 72 254 13.0 23.0 0.00 0.06 0.06 41 1001.5
20260509215105 72 267 6.0 12.0 0.00 0.06 0.06 43 1001.1
20260509214605 72 265 6.0 16.0 0.00 0.06 0.06 44 1001.0
20260509213105 72 201 5.0 12.0 0.00 0.06 0.06 46 1001.1
20260509212605 72 258 1.0 6.0 0.00 0.06 0.06 46 1001.0
20260509212105 72 262 0.0 0.0 0.00 0.06 0.06 47 1001.1
20260509211605 71 231 0.0 0.0 0.00 0.06 0.06 49 1001.1
20260509211105 71 272 0.0 0.0 0.00 0.06 0.06 51 1001.1
20260509210105 70 340 0.0 0.0 0.00 0.06 0.06 56 1001.1
20260509205605 70 233 0.0 0.0 0.00 0.06 0.06 58 1001.1
20260509204105 67 271 0.0 0.0 0.00 0.06 0.06 66 1001.4
20260509203605 67 258 0.0 0.0 0.00 0.06 0.06 67 1001.4
20260509203105 66 325 0.0 0.0 0.00 0.06 0.06 66 1001.5
20260509202605 66 298 0.0 0.0 0.00 0.06 0.06 66 1001.5
20260509202105 66 318 0.0 0.0 0.00 0.06 0.06 66 1001.5
20260509201605 66 283 0.0 0.0 0.00 0.06 0.06 65 1001.5
20260509201106 66 291 0.0 0.0 0.01 0.06 0.06 65 1001.5
20260509195605 67 316 0.0 0.0 0.06 0.06 0.06 61 1001.5
20260509195105 67 300 0.0 0.0 0.06 0.06 0.06 61 1001.5
20260509194605 68 336 0.0 0.0 0.06 0.06 0.06 62 1001.5
20260509194105 68 274 0.0 0.0 0.06 0.06 0.06 64 1001.2
20260509193605 67 252 0.0 0.0 0.06 0.06 0.06 66 1001.0
20260509193105 66 249 0.0 0.0 0.06 0.06 0.06 68 1001.0
20260509192605 66 223 0.0 0.0 0.06 0.06 0.06 69 1001.0
20260509192105 66 276 0.0 0.0 0.06 0.06 0.06 69 1001.1
20260509191605 67 224 0.0 0.0 0.06 0.06 0.06 67 1001.5
20260509191105 68 267 0.0 0.0 0.05 0.05 0.05 64 1001.5
20260509190605 69 295 0.0 0.0 0.04 0.04 0.04 61 1001.5
20260509190106 70 304 0.0 0.0 0.02 0.02 0.02 58 1001.2
20260509185605 71 214 1.0 12.0 0.00 0.00 0.00 51 1001.0
20260509185105 71 229 8.0 21.0 0.00 0.00 0.00 47 1000.9
20260509184605 72 243 9.0 16.0 0.00 0.00 0.00 46 1000.9
20260509184105 72 226 7.0 17.0 0.00 0.00 0.00 47 1001.0
20260509183605 72 245 6.0 20.0 0.00 0.00 0.00 46 1001.3
20260509183105 72 233 5.0 20.0 0.00 0.00 0.00 48 1001.1
20260509182605 72 197 10.0 20.0 0.00 0.00 0.00 47 1001.4
20260509182105 71 224 8.0 14.0 0.00 0.00 0.00 49 1001.2
20260509181604 71 219 6.0 15.0 0.00 0.00 0.00 50 1001.4
20260509181105 71 222 8.0 16.0 0.00 0.00 0.00 50 1001.5
20260509180605 70 249 6.0 15.0 0.00 0.00 0.00 50 1001.6
20260509180104 70 212 7.0 15.0 0.00 0.00 0.00 49 1001.6
20260509175605 70 218 0.0 0.0 0.00 0.00 0.00 49 1001.7
20260509175105 70 219 0.0 0.0 0.00 0.00 0.00 50 1001.7
20260509174105 69 194 0.0 0.0 0.00 0.00 0.00 53 1001.8
20260509173605 69 228 0.0 0.0 0.00 0.00 0.00 51 1001.9
20260509173105 69 222 0.0 0.0 0.00 0.00 0.00 52 1001.8
20260509172105 69 221 0.0 0.0 0.00 0.00 0.00 53 1001.9
20260509171604 68 227 0.0 0.0 0.00 0.00 0.00 54 1002.0
20260509171105 68 192 0.0 0.0 0.00 0.00 0.00 54 1002.1
20260509165605 68 226 0.0 0.0 0.00 0.00 0.00 54 1002.1
20260509165105 67 221 0.0 0.0 0.00 0.00 0.00 55 1002.1
20260509164604 67 237 0.0 0.0 0.00 0.00 0.00 55 1002.1
20260509164105 67 214 0.0 0.0 0.00 0.00 0.00 58 1002.2
20260509163605 67 219 0.0 0.0 0.00 0.00 0.00 58 1002.2
20260509163105 66 225 0.0 0.0 0.00 0.00 0.00 58 1002.2
20260509162105 67 223 0.0 0.0 0.00 0.00 0.00 57 1002.4
20260509161605 67 185 0.0 0.0 0.00 0.00 0.00 59 1002.4
20260509161105 67 223 0.0 0.0 0.00 0.00 0.00 61 1002.3
20260509160105 66 226 0.0 0.0 0.00 0.00 0.00 62 1002.5
20260509155605 66 229 0.0 0.0 0.00 0.00 0.00 61 1002.6
20260509154605 65 240 0.0 0.0 0.00 0.00 0.00 64 1002.6
20260509154105 65 225 0.0 0.0 0.00 0.00 0.00 67 1002.6
20260509153605 65 201 0.0 0.0 0.00 0.00 0.00 68 1002.6
20260509153107 65 223 0.0 0.0 0.00 0.00 0.00 68 1002.6
20260509152605 64 178 0.0 0.0 0.00 0.00 0.00 69 1002.7
20260509152106 64 222 0.0 0.0 0.00 0.00 0.00 70 1002.8
20260509151605 64 234 0.0 0.0 0.00 0.00 0.00 71 1002.8
20260509151104 64 225 0.0 0.0 0.00 0.00 0.00 70 1003.0
20260509150605 64 217 0.0 0.0 0.00 0.00 0.00 70 1003.0
20260509150105 64 201 0.0 0.0 0.00 0.00 0.00 70 1003.1
20260509145605 64 208 0.0 0.0 0.00 0.00 0.00 70 1003.2
20260509144604 64 179 0.0 0.0 0.00 0.00 0.00 73 1003.2
20260509143605 62 197 0.0 0.0 0.00 0.00 0.00 75 1003.3
20260509142605 61 238 0.0 0.0 0.00 0.00 0.00 78 1003.5
20260509142105 61 222 0.0 0.0 0.00 0.00 0.00 79 1003.4
20260509141604 61 232 0.0 0.0 0.00 0.00 0.00 81 1003.6
20260509141105 60 205 0.0 0.0 0.00 0.00 0.00 83 1003.8
20260509140604 60 198 0.0 0.0 0.00 0.00 0.00 84 1003.8
20260509140105 59 209 0.0 0.0 0.00 0.00 0.00 85 1003.9
20260509135605 59 203 0.0 0.0 0.00 0.00 0.00 87 1004.0
20260509135104 59 212 0.0 0.0 0.00 0.00 0.00 88 1003.9
20260509134605 58 236 0.0 0.0 0.00 0.00 0.00 89 1004.0
20260509133605 58 210 0.0 0.0 0.00 0.00 0.00 90 1004.0
20260509133104 57 205 0.0 0.0 0.00 0.00 0.00 91 1004.1
20260509132605 57 199 0.0 0.0 0.00 0.00 0.00 92 1004.2
20260509132104 56 236 0.0 0.0 0.00 0.00 0.00 92 1004.3
20260509131605 56 242 0.0 0.0 0.00 0.00 0.00 92 1004.3
20260509131105 56 237 0.0 0.0 0.00 0.00 0.00 92 1004.3
20260509130606 56 254 0.0 0.0 0.00 0.00 0.00 92 1004.3
20260509125604 55 225 0.0 0.0 0.00 0.00 0.00 92 1004.3
20260509125104 55 183 0.0 0.0 0.00 0.00 0.00 93 1004.3
20260509124604 55 248 0.0 0.0 0.00 0.00 0.00 93 1004.3
20260509124105 55 230 0.0 0.0 0.00 0.00 0.00 93 1004.3
20260509123605 54 201 0.0 0.0 0.00 0.00 0.00 93 1004.3
20260509123104 54 250 0.0 0.0 0.00 0.00 0.00 93 1004.4
20260509122604 54 224 0.0 0.0 0.00 0.00 0.00 93 1004.3
20260509122105 54 235 0.0 0.0 0.00 0.00 0.00 93 1004.3
20260509121104 54 196 0.0 0.0 0.00 0.00 0.00 93 1004.4
20260509120605 53 240 0.0 0.0 0.00 0.00 0.00 93 1004.5
20260509120105 53 243 0.0 0.0 0.00 0.00 0.00 93 1004.8
20260509115605 53 244 0.0 0.0 0.00 0.00 0.00 93 1004.8
20260509115105 53 246 0.0 0.0 0.00 0.00 0.00 93 1004.8
20260509114605 53 252 0.0 0.0 0.00 0.00 0.00 93 1004.8
20260509114105 53 228 0.0 0.0 0.00 0.00 0.00 92 1004.9
20260509113604 53 263 0.0 0.0 0.00 0.00 0.00 92 1004.8
20260509112605 53 210 0.0 0.0 0.00 0.00 0.00 92 1004.9
20260509112105 53 218 0.0 0.0 0.00 0.00 0.00 92 1004.8
20260509111605 53 200 0.0 0.0 0.00 0.00 0.00 92 1004.9
20260509111105 53 160 0.0 0.0 0.00 0.00 0.00 92 1004.9
20260509110604 53 243 0.0 0.0 0.00 0.00 0.00 92 1004.8
20260509110104 53 244 0.0 0.0 0.00 0.00 0.00 92 1004.9
20260509105604 53 227 0.0 0.0 0.00 0.00 0.00 92 1004.8
20260509105104 53 234 0.0 0.0 0.00 0.00 0.00 92 1004.8
20260509104604 53 245 0.0 0.0 0.00 0.00 0.00 92 1004.8
20260509104108 53 237 0.0 0.0 0.00 0.00 0.00 92 1004.8
20260509103604 53 232 0.0 0.0 0.00 0.00 0.00 92 1004.8
20260509102605 53 240 0.0 0.0 0.00 0.00 0.00 92 1004.8
20260509102104 53 225 0.0 0.0 0.00 0.00 0.00 91 1004.8
20260509101604 53 226 0.0 0.0 0.00 0.00 0.00 91 1004.6
20260509101105 53 214 0.0 0.0 0.00 0.00 0.00 91 1004.5
20260509100604 53 238 0.0 0.0 0.00 0.00 0.00 91 1004.4
20260509095604 52 263 0.0 0.0 0.00 0.00 0.00 91 1004.4
20260509095105 52 249 0.0 0.0 0.00 0.00 0.00 90 1004.4
20260509094605 52 240 0.0 0.0 0.00 0.00 0.00 90 1004.4
20260509094105 52 216 0.0 0.0 0.00 0.00 0.00 90 1004.5
20260509093605 52 208 0.0 0.0 0.00 0.00 0.00 90 1004.5
20260509093105 52 232 0.0 0.0 0.00 0.00 0.00 90 1004.5
20260509092605 52 236 0.0 0.0 0.00 0.00 0.00 90 1004.5
20260509092105 52 229 0.0 0.0 0.00 0.00 0.00 89 1004.5
20260509091605 52 229 0.0 0.0 0.00 0.00 0.00 89 1004.6
20260509091104 52 238 0.0 0.0 0.00 0.00 0.00 89 1004.7
20260509090604 52 238 0.0 0.0 0.00 0.00 0.00 89 1004.8
20260509085104 51 239 0.0 0.0 0.00 0.00 0.00 89 1004.9
20260509084605 51 239 0.0 0.0 0.00 0.00 0.00 88 1004.9
20260509084104 51 221 0.0 0.0 0.00 0.00 0.00 88 1004.9
20260509083605 51 241 0.0 0.0 0.00 0.00 0.00 88 1004.9
20260509083104 51 250 0.0 0.0 0.00 0.00 0.00 88 1004.9
20260509082605 51 250 0.0 0.0 0.00 0.00 0.00 88 1005.0
20260509082105 51 250 0.0 0.0 0.00 0.00 0.00 88 1005.0
20260509081605 52 250 0.0 0.0 0.00 0.00 0.00 88 1004.9
20260509080604 51 250 0.0 0.0 0.00 0.00 0.00 87 1004.9
20260509080104 52 250 0.0 0.0 0.00 0.00 0.00 87 1004.9
20260509075604 52 250 0.0 0.0 0.00 0.00 0.00 87 1005.0
20260509075105 52 250 0.0 0.0 0.00 0.00 0.00 87 1005.1
20260509074105 52 250 0.0 0.0 0.00 0.00 0.00 87 1004.9
20260509073605 52 250 0.0 0.0 0.00 0.00 0.00 86 1005.0
20260509073105 52 250 0.0 0.0 0.00 0.00 0.00 86 1005.1
20260509072605 52 250 0.0 0.0 0.00 0.00 0.00 86 1005.1
20260509072105 52 250 0.0 0.0 0.00 0.00 0.00 86 1005.3
20260509071604 52 250 0.0 0.0 0.00 0.00 0.00 86 1005.4
20260509070604 52 250 0.0 0.0 0.00 0.00 0.00 85 1005.4
20260509070105 52 250 0.0 0.0 0.00 0.00 0.00 85 1005.5
20260509065604 52 250 0.0 0.0 0.00 0.00 0.00 85 1005.5
20260509065104 52 250 0.0 0.0 0.00 0.00 0.00 84 1005.5
20260509064604 52 250 0.0 0.0 0.00 0.00 0.00 84 1005.5
20260509064104 52 250 0.0 0.0 0.00 0.00 0.00 84 1005.5
20260509063604 52 250 0.0 0.0 0.00 0.00 0.00 83 1005.7
20260509062605 53 250 0.0 0.0 0.00 0.00 0.00 82 1005.7
20260509061605 53 251 0.0 0.0 0.00 0.00 0.00 81 1005.7
20260509060605 54 252 0.0 0.0 0.00 0.00 0.00 81 1005.8
20260509060104 54 252 0.0 0.0 0.00 0.00 0.00 81 1005.9
20260509055604 54 252 0.0 0.0 0.00 0.00 0.00 81 1006.0
20260509055105 55 252 0.0 0.0 0.00 0.00 0.00 81 1006.0
20260509054605 55 239 0.0 0.0 0.00 0.00 0.00 81 1006.0
20260509054105 55 250 0.0 0.0 0.00 0.00 0.00 81 1006.0
20260509053604 56 251 0.0 0.0 0.00 0.00 0.00 82 1006.0
20260509053104 56 252 0.0 0.0 0.00 0.00 0.00 82 1006.1
20260509052604 56 252 0.0 0.0 0.00 0.00 0.00 82 1006.1
20260509051604 56 252 0.0 0.0 0.00 0.00 0.00 82 1006.1
20260509051104 56 250 0.0 0.0 0.00 0.00 0.00 82 1006.2
20260509050604 56 233 0.0 0.0 0.00 0.00 0.00 82 1006.3
20260509045604 56 238 0.0 0.0 0.00 0.00 0.00 82 1006.1
20260509045104 56 258 0.0 0.0 0.00 0.00 0.00 82 1006.3
20260509044605 56 259 0.0 0.0 0.00 0.00 0.00 82 1006.3
20260509044104 56 242 0.0 0.0 0.00 0.00 0.00 82 1006.5
20260509043604 56 254 0.0 0.0 0.00 0.00 0.00 82 1006.5
20260509042604 56 225 0.0 0.0 0.00 0.00 0.00 82 1006.5
20260509041604 57 236 0.0 0.0 0.00 0.00 0.00 81 1006.6
20260509041105 57 263 0.0 0.0 0.00 0.00 0.00 81 1006.6
20260509040605 57 236 0.0 0.0 0.00 0.00 0.00 81 1006.6
20260509040104 57 238 0.0 0.0 0.00 0.00 0.00 81 1006.6
20260509035604 57 229 0.0 0.0 0.00 0.00 0.00 81 1006.7
20260509035104 57 233 0.0 0.0 0.00 0.00 0.00 81 1006.7
20260509034105 57 238 0.0 0.0 0.00 0.00 0.00 80 1006.7
20260509033604 57 236 0.0 0.0 0.00 0.00 0.00 80 1006.8
20260509033107 57 244 0.0 0.0 0.00 0.00 0.00 80 1006.8
20260509032604 57 230 0.0 0.0 0.00 0.00 0.00 80 1006.8
20260509032104 57 244 0.0 0.0 0.00 0.00 0.00 79 1006.9
20260509031604 57 233 0.0 0.0 0.00 0.00 0.00 79 1007.0
20260509031105 57 247 0.0 0.0 0.00 0.00 0.00 79 1007.1
20260509030604 57 258 0.0 0.0 0.00 0.00 0.00 78 1007.1
20260509030104 57 241 0.0 0.0 0.00 0.00 0.00 78 1007.1
20260509025605 57 248 0.0 0.0 0.00 0.00 0.00 78 1007.1
20260509025105 57 253 0.0 0.0 0.00 0.00 0.00 77 1007.1
20260509024604 57 251 0.0 0.0 0.00 0.00 0.00 77 1007.0
20260509024104 57 256 0.0 0.0 0.00 0.00 0.00 77 1007.1
20260509023604 57 261 0.0 0.0 0.00 0.00 0.00 76 1007.1
20260509023104 57 237 0.0 0.0 0.00 0.00 0.00 75 1007.1
20260509021104 58 220 0.0 0.0 0.00 0.00 0.00 73 1007.1
20260509020604 58 239 0.0 0.0 0.00 0.00 0.00 73 1007.0
20260509015604 58 222 0.0 0.0 0.00 0.00 0.00 72 1006.9
20260509015104 59 203 0.0 0.0 0.00 0.00 0.00 71 1006.9
20260509013605 59 198 0.0 0.0 0.00 0.00 0.00 69 1006.7
20260509013105 60 260 0.0 0.0 0.00 0.00 0.00 69 1006.6
20260509012604 60 209 0.0 0.0 0.00 0.00 0.00 69 1006.6
20260509012105 60 223 0.0 0.0 0.00 0.00 0.00 68 1006.5
20260509011605 60 212 0.0 0.0 0.00 0.00 0.00 67 1006.5
20260509011104 60 226 0.0 0.0 0.00 0.00 0.00 66 1006.4
20260509010104 61 216 0.0 0.0 0.00 0.00 0.00 64 1006.2
20260509005604 61 211 0.0 0.0 0.00 0.00 0.00 63 1006.1
20260509005104 61 232 0.0 0.0 0.00 0.00 0.00 62 1006.1
20260509004604 61 211 0.0 0.0 0.00 0.00 0.00 60 1006.1
20260509004105 61 207 0.0 0.0 0.00 0.00 0.00 59 1006.1
20260509003605 62 205 0.0 0.0 0.00 0.00 0.00 58 1006.1
20260509003105 62 219 0.0 0.0 0.00 0.00 0.00 58 1006.1
20260509002605 62 200 0.0 0.0 0.00 0.00 0.00 58 1006.1